This is the latest recevied weather packets stored in our database for station/object DK6GC-10. If no packets are shown the sender has not sent any weather packets the latest 10 day(s).
| Time | Temp. | Humidity | Pressure | Rain* | Wind** | Luminosity | Snow |
|---|---|---|---|---|---|---|---|
| 1787499926 | 22.78° C | 43% | 1022.9 hPa | - | - | - | - |
| 1787499026 | 23.33° C | 43% | 1022.9 hPa | - | - | - | - |
| 1787498126 | 23.33° C | 42% | 1022.9 hPa | - | - | - | - |
| 1787497225 | 23.33° C | 43% | 1023.1 hPa | - | - | - | - |
| 1787496325 | 23.33° C | 43% | 1023 hPa | - | - | - | - |
| 1787495425 | 23.89° C | 44% | 1023.1 hPa | - | - | - | - |
| 1787494525 | 23.33° C | 44% | 1023.2 hPa | - | - | - | - |
| 1787493625 | 23.33° C | 45% | 1023.3 hPa | - | - | - | - |
| 1787492725 | 23.33° C | 45% | 1023.4 hPa | - | - | - | - |
| 1787491824 | 22.78° C | 46% | 1023.5 hPa | - | - | - | - |
| 1787490924 | 22.78° C | 46% | 1023.5 hPa | - | - | - | - |
| 1787490023 | 23.33° C | 46% | 1023.6 hPa | - | - | - | - |
| 1787489123 | 22.78° C | 47% | 1023.6 hPa | - | - | - | - |
| 1787488222 | 22.78° C | 46% | 1023.6 hPa | - | - | - | - |
| 1787487321 | 22.78° C | 45% | 1023.7 hPa | - | - | - | - |
| 1787486426 | 22.78° C | 47% | 1023.8 hPa | - | - | - | - |
| 1787485525 | 22.22° C | 46% | 1024.1 hPa | - | - | - | - |
| 1787484625 | 22.78° C | 46% | 1024.1 hPa | - | - | - | - |
| 1787483725 | 22.22° C | 51% | 1024.1 hPa | - | - | - | - |
| 1787482825 | 21.67° C | 50% | 1024.2 hPa | - | - | - | - |
| 1787481925 | 22.22° C | 53% | 1024.2 hPa | - | - | - | - |
| 1787481025 | 22.22° C | 55% | 1024.5 hPa | - | - | - | - |
| 1787480124 | 21.11° C | 56% | 1024.6 hPa | - | - | - | - |
| 1787479224 | 20.56° C | 58% | 1024.7 hPa | - | - | - | - |
| 1787478324 | 20.56° C | 58% | 1024.7 hPa | - | - | - | - |
* Rain since midnight (hover to see other rain measurements)
** Current wind speed in m/s (hover to see current wind gust speed)